[[{"header":{"parameterUnit":"m.s-1","parameterCategory":1,"la1":30.2991,"la2":30.254,"lo1":-89.0895,"lo2":-89.0444,"dy":0.0017,"dx":0.0017,"nx":28,"ny":28,"refTime":"2024-06-13T03:00:00:Z","depth":0,"parameterNumber":2,"parameterNumberName":"U-component_of_WINDS"},"data":[0,0,0,0,0,0,0,0,0,0,0,0,0,0,0,0,0,0,0,0,0,0,0,0,0,0,0,0,0,0,0,0,0,0,0,0,0,0,0,0,0,0,0,0,0,0,0,0,0,0,0,0,0,0,0,0,0,0,-2.1845,-2.1845,0,-2.1805,-2.1804,-2.1804,-2.1713,-2.1711,-2.1709,-2.1708,-2.1669,-2.1669,-2.167,0,0,0,0,0,0,0,0,0,0,0,0,0,-2.1847,-2.1847,-2.1845,-2.1845,-2.1844,-2.1805,-2.1804,-2.1804,-2.1713,-2.1711,-2.1709,-2.1707,-2.1669,-2.1669,-2.167,0,0,0,0,0,0,0,0,0,0,0,0,0,-2.183,-2.1847,-2.1845,-2.1794,-2.1789,-2.1805,-2.1804,-2.1804,-2.1714,-2.1711,-2.1708,-2.1706,-2.1668,-2.1669,-2.167,-2.1733,0,0,-2.1674,-2.1674,0,0,0,0,0,0,0,0,-2.1831,-2.183,-2.1802,-2.1798,-2.1792,-2.1761,-2.179,-2.178,-2.1715,-2.1743,-2.1707,-2.1704,-2.1702,-2.17,-2.1699,-2.1731,-2.173,-2.1674,-2.1674,-2.1675,-2.1675,0,0,0,0,0,0,0,-2.1833,-2.1832,-2.1829,-2.1802,-2.1796,-2.1774,-2.1769,-2.1788,-2.1739,-2.174,-2.1733,-2.173,-2.1699,-2.1698,-2.1697,-2.1729,-2.1674,-2.1675,-2.1675,-2.1676,-2.1811,-2.1814,0,0,0,0,0,0,-2.1841,-2.1833,-2.1831,-2.1828,-2.1805,-2.1776,-2.177,-2.1774,-2.1738,-2.173,-2.1732,-2.1725,-2.1697,-2.1696,-2.1695,-2.1767,-2.1675,-2.1676,-2.1676,-2.1809,-2.1812,-2.1815,0,0,0,0,0,0,-2.1841,-2.1841,-2.1832,-2.1829,-2.1826,-2.1779,-2.1784,-2.1775,-2.1774,-2.1732,-2.1723,-2.174,-2.1695,-2.1694,-2.1724,-2.1764,-2.1676,-2.1677,-2.1805,-2.181,-2.1814,-2.1911,0,0,0,0,0,0,-2.1842,-2.1842,-2.1865,-2.183,-2.1826,-2.1862,-2.1787,-2.1776,-2.1775,-2.1767,-2.1737,-2.173,-2.1693,-2.1723,-2.1725,-2.1764,-2.1678,-2.1801,-2.1807,-2.1812,-2.1904,-2.1918,-2.193,0,0,0,0,0,-2.1842,-2.1895,-2.1867,-2.1867,-2.1854,-2.1864,-2.1862,-2.1818,-2.1779,-2.1802,-2.1775,-2.1731,-2.1759,-2.1727,-2.1729,-2.1769,-2.1799,-2.1805,-2.1812,-2.1898,-2.1915,-2.193,0,0,0,0,0,0,-2.1937,-2.1889,-2.1858,-2.19,-2.1887,-2.1849,-2.1876,-2.1837,-2.1835,-2.1827,-2.1773,-2.1767,-2.1805,-2.1789,-2.1754,-2.1828,-2.1772,-2.1779,-2.1837,-2.1853,-2.1866,-2.187,-2.1679,0,0,0,0,0,-2.1962,-2.1974,-2.1931,-2.1973,-2.1968,-2.1924,-2.1926,-2.1893,-2.1877,-2.1872,-2.1847,-2.1834,-2.184,-2.1845,-2.1848,-2.1901,-2.1894,-2.1929,-2.1942,-2.1953,-2.1961,-2.1988,-2.2004,-2.1837,-2.1837,-2.1837,0,0,-2.2016,-2.1991,-2.2002,-2.1992,-2.1977,-2.1991,-2.192,-2.1937,-2.1947,-2.1874,-2.1902,-2.1883,-2.1865,-2.1907,-2.1924,-2.1895,-2.2005,-2.1962,-2.1971,-2.1972,-2.1996,-2.2012,-2.2026,-2.1842,-2.1841,-2.184,0,0,-2.2121,-2.2103,-2.2136,-2.2123,-2.2101,-2.2071,-2.2079,-2.2047,-2.2032,-2.2058,-2.2004,-2.2015,-2.2026,-2.2016,-2.2012,-2.2113,-2.2072,-2.2115,-2.2185,-2.2212,-2.2225,-2.2236,-2.2273,-2.2287,-2.2122,-2.2123,-2.2123,0,-2.2191,-2.2208,-2.2158,-2.2179,-2.2177,-2.211,-2.2144,-2.2133,-2.2115,-2.2115,-2.2083,-2.2095,-2.2079,-2.2117,-2.2142,-2.2141,-2.2149,-2.2119,-2.2227,-2.2238,-2.2248,-2.2282,-2.2296,-2.2128,-2.2127,-2.2127,-2.2126,0,-2.2296,-2.2309,-2.2338,-2.2321,-2.2322,-2.2349,-2.2304,-2.231,-2.2277,-2.2251,-2.2278,-2.2256,-2.2253,-2.226,-2.2227,-2.2294,-2.2277,-2.2236,-2.218,-2.227,-2.2302,-2.2315,-2.2136,-2.2134,-2.2132,-2.2131,0,0,-2.2461,-2.2415,-2.2427,-2.2418,-2.2389,-2.2399,-2.2423,-2.242,-2.2428,-2.2417,-2.2437,-2.2447,-2.2409,-2.2405,-2.2371,-2.2395,-2.2477,-2.2351,-2.235,-2.2377,-2.2551,-2.2583,-2.2599,-2.2449,-2.2451,-2.2453,-2.2553,0,-2.2561,-2.2599,-2.2554,-2.2603,-2.2615,-2.2551,-2.2572,-2.2558,-2.2534,-2.2541,-2.2514,-2.2523,-2.2472,-2.2469,-2.2489,-2.2463,-2.2512,-2.2455,-2.2469,-2.247,-2.2477,-2.2615,-2.2649,-2.2744,-2.2565,-2.2567,-2.2568,0,-2.2682,-2.2676,-2.2726,-2.2694,-2.2697,-2.2717,-2.2711,-2.2718,-2.27,-2.2681,-2.2676,-2.2634,-2.2657,-2.26,-2.2631,-2.2594,-2.2596,-2.2584,-2.2587,-2.2588,-2.2526,-2.2622,-2.2773,-2.2788,-2.2587,-2.2585,-2.2584,0,-2.28,-2.2804,-2.2834,-2.2829,-2.2792,-2.2807,-2.2793,-2.2772,-2.2773,-2.2767,-2.2767,-2.2765,-2.2764,-2.2763,-2.2723,-2.2685,-2.2759,-2.2699,-2.2745,-2.2746,-2.2765,-2.2765,-2.2921,-2.2764,-2.2764,-2.2764,-2.2764,0,-2.2916,-2.295,-2.2886,-2.2905,-2.2941,-2.2889,-2.2925,-2.2904,-2.2886,-2.2901,-2.2845,-2.286,-2.2804,-2.2814,-2.2782,-2.2813,-2.2812,-2.2798,-2.279,-2.2805,-2.2807,-2.2807,-2.28,-2.2768,-2.2767,-2.2766,-2.2765,0,-2.3055,-2.3013,-2.3042,-2.3004,-2.2996,-2.3024,-2.2992,-2.3008,-2.298,-2.2999,-2.3,-2.2956,-2.2964,-2.2922,-2.2923,-2.2902,-2.2949,-2.2929,-2.2956,-2.295,-2.2999,-2.2996,-2.3162,-2.3182,-2.3012,-2.3013,-2.3015,0,-2.3133,-2.3157,-2.3121,-2.3126,-2.3114,-2.3123,-2.3124,-2.3073,-2.3076,-2.3057,-2.3076,-2.3079,-2.3079,-2.3095,-2.3063,-2.3064,-2.3044,-2.3102,-2.3044,-2.3058,-2.3046,-2.3046,-2.3049,-2.3115,-2.3117,-2.3119,-2.312,0,-2.3277,-2.3255,-2.3257,-2.3252,-2.3254,-2.3248,-2.3238,-2.3246,-2.3191,-2.3197,-2.3204,-2.3204,-2.3204,-2.3208,-2.3202,-2.3187,-2.3146,-2.3138,-2.3149,-2.3165,-2.318,-2.3174,-2.2991,-2.3135,-2.3134,-2.3133,-2.3132,-2.3131,-2.3388,-2.3407,-2.3384,-2.3389,-2.3376,-2.3368,-2.3382,-2.3354,-2.3359,-2.3354,-2.3324,-2.3337,-2.3318,-2.3305,-2.3295,-2.3305,-2.3277,-2.3293,-2.3297,-2.3302,-2.3312,-2.3177,-2.3303,-2.3303,-2.3302,-2.3302,-2.3302,0,-2.353,-2.3512,-2.3517,-2.3505,-2.3508,-2.3466,-2.3453,-2.346,-2.3471,-2.3457,-2.3457,-2.3465,-2.3469,-2.3438,-2.3437,-2.3451,-2.3432,-2.3453,-2.3452,-2.345,-2.3336,-2.3327,-2.3469,-2.3469,-2.3469,-2.3469,-2.3468,-2.3468,-2.3605,-2.3634,-2.361,-2.3632,-2.3614,-2.3625,-2.3622,-2.3615,-2.3603,-2.3614,-2.3616,-2.3595,-2.3574,-2.3572,-2.3573,-2.3564,-2.3567,-2.3595,-2.358,-2.3474,-2.3458,-2.3443,-2.3434,-2.3596,-2.3596,-2.3693,-2.3694,-2.3695]},{"header":{"parameterUnit":"m.s-1","parameterCategory":1,"la1":30.2991,"la2":30.254,"lo1":-89.0895,"lo2":-89.0444,"dy":0.0017,"dx":0.0017,"nx":28,"ny":28,"refTime":"2024-06-13T03:00:00:Z","depth":0,"parameterNumber":3,"parameterNumberName":"V-component_of_WINDS"},"data":[0,0,0,0,0,0,0,0,0,0,0,0,0,0,0,0,0,0,0,0,0,0,0,0,0,0,0,0,0,0,0,0,0,0,0,0,0,0,0,0,0,0,0,0,0,0,0,0,0,0,0,0,0,0,0,0,0,0,-2.3736,-2.3736,0,-2.378,-2.378,-2.3781,-2.377,-2.3769,-2.3768,-2.3767,-2.381,-2.3812,-2.3814,0,0,0,0,0,0,0,0,0,0,0,0,0,-2.3639,-2.3641,-2.3735,-2.3736,-2.3737,-2.378,-2.378,-2.3781,-2.377,-2.3769,-2.3768,-2.3767,-2.381,-2.3812,-2.3814,0,0,0,0,0,0,0,0,0,0,0,0,0,-2.3682,-2.3642,-2.3735,-2.3736,-2.3737,-2.3779,-2.378,-2.3781,-2.377,-2.3769,-2.3768,-2.3767,-2.3809,-2.3812,-2.3815,-2.3858,0,0,-2.3824,-2.3825,0,0,0,0,0,0,0,0,-2.368,-2.3686,-2.3736,-2.3736,-2.3737,-2.3768,-2.3762,-2.3807,-2.3771,-2.3758,-2.3767,-2.3766,-2.3797,-2.3801,-2.3812,-2.386,-2.3862,-2.3824,-2.3826,-2.3827,-2.3828,0,0,0,0,0,0,0,-2.3677,-2.3684,-2.3753,-2.3736,-2.3737,-2.3734,-2.3739,-2.377,-2.3784,-2.3759,-2.3758,-2.3763,-2.3797,-2.3809,-2.3813,-2.3862,-2.3824,-2.3826,-2.3828,-2.3829,-2.3948,-2.395,0,0,0,0,0,0,-2.3673,-2.3681,-2.3751,-2.3754,-2.3705,-2.3737,-2.3742,-2.3759,-2.3784,-2.3786,-2.3764,-2.3763,-2.3805,-2.3809,-2.3814,-2.3867,-2.3827,-2.3829,-2.3831,-2.3947,-2.3948,-2.395,0,0,0,0,0,0,-2.3671,-2.368,-2.375,-2.3718,-2.3726,-2.374,-2.3759,-2.3761,-2.3773,-2.3788,-2.379,-2.3774,-2.3804,-2.381,-2.3847,-2.3868,-2.3831,-2.3833,-2.3945,-2.3947,-2.3949,-2.3973,0,0,0,0,0,0,-2.3669,-2.3679,-2.3697,-2.3718,-2.3728,-2.3783,-2.3761,-2.3763,-2.3778,-2.3776,-2.3798,-2.38,-2.3803,-2.3843,-2.385,-2.3872,-2.3836,-2.3943,-2.3946,-2.3949,-2.397,-2.3976,-2.398,0,0,0,0,0,-2.3665,-2.3701,-2.3697,-2.3706,-2.375,-2.3784,-2.379,-2.3794,-2.378,-2.3797,-2.3807,-2.3799,-2.3865,-2.3847,-2.3855,-2.3878,-2.3942,-2.3945,-2.3948,-2.3968,-2.3975,-2.398,0,0,0,0,0,0,-2.3681,-2.3704,-2.37,-2.3744,-2.3762,-2.3782,-2.3804,-2.38,-2.3822,-2.382,-2.3822,-2.3827,-2.3865,-2.3875,-2.3855,-2.3921,-2.3901,-2.3906,-2.3914,-2.392,-2.3925,-2.3922,-2.3838,0,0,0,0,0,-2.3689,-2.3716,-2.3734,-2.3771,-2.378,-2.3791,-2.3806,-2.3807,-2.3826,-2.3833,-2.3846,-2.3863,-2.3888,-2.3904,-2.3927,-2.3971,-2.3976,-2.399,-2.3995,-2.3999,-2.4004,-2.4028,-2.4035,-2.3961,-2.3961,-2.396,0,0,-2.3707,-2.3723,-2.3739,-2.3774,-2.3789,-2.3816,-2.3797,-2.3826,-2.3846,-2.3837,-2.3874,-2.3883,-2.3903,-2.3944,-2.3962,-2.3953,-2.4025,-2.4003,-2.4006,-2.4009,-2.4032,-2.4039,-2.4045,-2.3963,-2.3962,-2.3962,0,0,-2.3754,-2.3768,-2.3801,-2.3816,-2.3838,-2.3844,-2.3852,-2.3873,-2.3879,-2.3916,-2.391,-2.3932,-2.3975,-2.3989,-2.4002,-2.4054,-2.4048,-2.4061,-2.4087,-2.411,-2.4116,-2.4121,-2.414,-2.4147,-2.4065,-2.4065,-2.4065,0,-2.3773,-2.3814,-2.3818,-2.3848,-2.3863,-2.3857,-2.3889,-2.3903,-2.3932,-2.3942,-2.3931,-2.3984,-2.3997,-2.4041,-2.4054,-2.4064,-2.4073,-2.4059,-2.4115,-2.412,-2.4125,-2.4144,-2.4151,-2.4067,-2.4067,-2.4067,-2.4066,0,-2.3837,-2.3866,-2.3889,-2.3918,-2.3935,-2.3966,-2.3974,-2.3991,-2.3991,-2.3998,-2.4035,-2.405,-2.4077,-2.4087,-2.4086,-2.4131,-2.4125,-2.4114,-2.4095,-2.4134,-2.4151,-2.4158,-2.4069,-2.4068,-2.4068,-2.4068,0,0,-2.3896,-2.3926,-2.3934,-2.3947,-2.3971,-2.3993,-2.4023,-2.405,-2.4065,-2.4084,-2.411,-2.4145,-2.4136,-2.415,-2.4151,-2.4171,-2.4212,-2.4159,-2.4159,-2.4169,-2.4263,-2.4271,-2.4279,-2.4208,-2.4209,-2.421,-2.4261,0,-2.3945,-2.4,-2.4004,-2.4053,-2.4079,-2.4073,-2.41,-2.4117,-2.4124,-2.4147,-2.4154,-2.418,-2.4165,-2.4174,-2.4194,-2.4203,-2.4231,-2.4199,-2.4231,-2.4233,-2.4228,-2.4288,-2.4297,-2.4345,-2.4268,-2.4269,-2.427,0,-2.4011,-2.4033,-2.4085,-2.4105,-2.4117,-2.414,-2.4165,-2.4187,-2.4206,-2.421,-2.4226,-2.4224,-2.4254,-2.4233,-2.4274,-2.4253,-2.4266,-2.4272,-2.4274,-2.4278,-2.4254,-2.4295,-2.436,-2.4368,-2.428,-2.4279,-2.4279,0,-2.4049,-2.4092,-2.4129,-2.414,-2.4164,-2.4181,-2.4192,-2.421,-2.4225,-2.4246,-2.4256,-2.428,-2.4294,-2.4312,-2.4316,-2.43,-2.4358,-2.4337,-2.4362,-2.4362,-2.4375,-2.4375,-2.4445,-2.4382,-2.4382,-2.4382,-2.4382,0,-2.4105,-2.4137,-2.4147,-2.417,-2.4206,-2.4209,-2.4244,-2.4253,-2.4269,-2.4293,-2.4288,-2.431,-2.4314,-2.4337,-2.434,-2.4374,-2.438,-2.4384,-2.4384,-2.4385,-2.4385,-2.4394,-2.4392,-2.4384,-2.4383,-2.4383,-2.4382,0,-2.4155,-2.4163,-2.4203,-2.4222,-2.4228,-2.4253,-2.427,-2.4291,-2.4298,-2.4328,-2.4335,-2.4346,-2.4372,-2.4378,-2.4409,-2.4411,-2.4452,-2.4449,-2.4447,-2.4447,-2.4472,-2.447,-2.4552,-2.4563,-2.4492,-2.4492,-2.4493,0,-2.419,-2.4215,-2.4238,-2.4254,-2.4266,-2.4292,-2.4308,-2.4311,-2.4328,-2.4351,-2.437,-2.4396,-2.4418,-2.4461,-2.447,-2.4494,-2.4492,-2.4519,-2.4496,-2.4496,-2.4494,-2.4493,-2.4495,-2.4524,-2.4525,-2.4525,-2.4526,0,-2.4253,-2.4256,-2.428,-2.4305,-2.4325,-2.4345,-2.4364,-2.4377,-2.4383,-2.4402,-2.443,-2.4446,-2.4479,-2.4505,-2.4529,-2.4539,-2.4534,-2.4533,-2.454,-2.4542,-2.454,-2.4542,-2.446,-2.4531,-2.4531,-2.453,-2.453,-2.453,-2.4298,-2.432,-2.4339,-2.4366,-2.4381,-2.4398,-2.442,-2.4429,-2.4453,-2.448,-2.448,-2.4511,-2.4528,-2.4559,-2.4571,-2.4594,-2.4586,-2.4596,-2.4599,-2.4602,-2.4604,-2.4535,-2.4598,-2.4598,-2.4598,-2.4598,-2.4598,0,-2.4361,-2.4373,-2.4398,-2.4425,-2.4446,-2.4439,-2.4459,-2.4477,-2.4505,-2.4522,-2.4543,-2.4575,-2.46,-2.4611,-2.4636,-2.4653,-2.4651,-2.4659,-2.4658,-2.4661,-2.461,-2.4602,-2.466,-2.466,-2.466,-2.466,-2.466,-2.466,-2.4396,-2.4433,-2.4438,-2.4482,-2.4494,-2.4524,-2.4537,-2.4553,-2.4567,-2.4603,-2.4624,-2.4631,-2.4646,-2.4672,-2.4694,-2.4697,-2.4707,-2.4716,-2.4718,-2.4671,-2.4664,-2.4658,-2.4651,-2.4718,-2.4718,-2.4767,-2.4767,-2.4768]}]]